owner,sensor,date,latitude,longitude,vertical_datum,sea_water_practical_salinity,qcFlag 
LUMCON,ioos:station:LUMCON:101:1,2019-11-01T00:00:00Z,29.2533,-90.6633,1.735,9.24,11111222 
LUMCON,ioos:station:LUMCON:101:1,2019-11-01T00:15:00Z,29.2533,-90.6633,1.724,9.18,11111222 
LUMCON,ioos:station:LUMCON:101:1,2019-11-01T00:30:00Z,29.2533,-90.6633,1.735,9.06,11111222 
LUMCON,ioos:station:LUMCON:101:1,2019-11-01T00:45:00Z,29.2533,-90.6633,1.757,9.08,11111222 
LUMCON,ioos:station:LUMCON:101:1,2019-11-01T01:00:00Z,29.2533,-90.6633,1.763,9.05,11111222 
LUMCON,ioos:station:LUMCON:101:1,2019-11-01T01:15:00Z,29.2533,-90.6633,1.773,8.93,11111222 
LUMCON,ioos:station:LUMCON:101:1,2019-11-01T01:30:00Z,29.2533,-90.6633,1.774,8.71,11111222 
LUMCON,ioos:station:LUMCON:101:1,2019-11-01T01:45:00Z,29.2533,-90.6633,1.768,8.99,11111222 
LUMCON,ioos:station:LUMCON:101:1,2019-11-01T02:00:00Z,29.2533,-90.6633,1.773,7.8,11111222 
LUMCON,ioos:station:LUMCON:101:1,2019-11-01T02:15:00Z,29.2533,-90.6633,1.78,7.74,11111222 
LUMCON,ioos:station:LUMCON:101:1,2019-11-01T02:30:00Z,29.2533,-90.6633,1.793,7.82,11111222 
LUMCON,ioos:station:LUMCON:101:1,2019-11-01T02:45:00Z,29.2533,-90.6633,1.801,7.72,11111222 
LUMCON,ioos:station:LUMCON:101:1,2019-11-01T03:00:00Z,29.2533,-90.6633,1.816,8.03,11111222 
LUMCON,ioos:station:LUMCON:101:1,2019-11-01T03:15:00Z,29.2533,-90.6633,1.836,8.06,11111222 
LUMCON,ioos:station:LUMCON:101:1,2019-11-01T03:30:00Z,29.2533,-90.6633,1.843,7.63,11111222 
LUMCON,ioos:station:LUMCON:101:1,2019-11-01T03:45:00Z,29.2533,-90.6633,1.862,6.66,11111222 
LUMCON,ioos:station:LUMCON:101:1,2019-11-01T04:00:00Z,29.2533,-90.6633,1.872,6.59,11111222 
LUMCON,ioos:station:LUMCON:101:1,2019-11-01T04:15:00Z,29.2533,-90.6633,1.882,6.33,11111222 
LUMCON,ioos:station:LUMCON:101:1,2019-11-01T04:30:00Z,29.2533,-90.6633,1.887,5.99,11111222 
LUMCON,ioos:station:LUMCON:101:1,2019-11-01T04:45:00Z,29.2533,-90.6633,1.896,5.77,11111222 
LUMCON,ioos:station:LUMCON:101:1,2019-11-01T05:00:00Z,29.2533,-90.6633,1.912,5.66,11111222 
LUMCON,ioos:station:LUMCON:101:1,2019-11-01T05:15:00Z,29.2533,-90.6633,1.931,4.23,11111222 
LUMCON,ioos:station:LUMCON:101:1,2019-11-01T05:30:00Z,29.2533,-90.6633,1.946,4.71,11111222 
LUMCON,ioos:station:LUMCON:101:1,2019-11-01T05:45:00Z,29.2533,-90.6633,1.959,4.36,11111222 
LUMCON,ioos:station:LUMCON:101:1,2019-11-01T06:00:00Z,29.2533,-90.6633,1.967,3.83,11111222 
LUMCON,ioos:station:LUMCON:101:1,2019-11-01T06:15:00Z,29.2533,-90.6633,1.975,3.86,11111222 
LUMCON,ioos:station:LUMCON:101:1,2019-11-01T06:30:00Z,29.2533,-90.6633,1.979,3.77,11111222 
LUMCON,ioos:station:LUMCON:101:1,2019-11-01T06:45:00Z,29.2533,-90.6633,1.984,3.75,11111222 
LUMCON,ioos:station:LUMCON:101:1,2019-11-01T07:00:00Z,29.2533,-90.6633,1.989,3.89,11111222 
LUMCON,ioos:station:LUMCON:101:1,2019-11-01T07:15:00Z,29.2533,-90.6633,1.996,3.77,11111222 
LUMCON,ioos:station:LUMCON:101:1,2019-11-01T07:30:00Z,29.2533,-90.6633,2.001,4.03,11111222 
LUMCON,ioos:station:LUMCON:101:1,2019-11-01T07:45:00Z,29.2533,-90.6633,2.001,3.82,11111222 
LUMCON,ioos:station:LUMCON:101:1,2019-11-01T08:00:00Z,29.2533,-90.6633,2.004,4.47,11111222 
LUMCON,ioos:station:LUMCON:101:1,2019-11-01T08:15:00Z,29.2533,-90.6633,2.009,4.64,11111222 
LUMCON,ioos:station:LUMCON:101:1,2019-11-01T08:30:00Z,29.2533,-90.6633,2.015,4.37,11111222 
LUMCON,ioos:station:LUMCON:101:1,2019-11-01T08:45:00Z,29.2533,-90.6633,2.015,4.44,11111222 
LUMCON,ioos:station:LUMCON:101:1,2019-11-01T09:00:00Z,29.2533,-90.6633,2.019,4.96,11111222 
LUMCON,ioos:station:LUMCON:101:1,2019-11-01T09:15:00Z,29.2533,-90.6633,2.02,4.93,11111222 
LUMCON,ioos:station:LUMCON:101:1,2019-11-01T09:30:00Z,29.2533,-90.6633,2.018,5.04,11111222 
LUMCON,ioos:station:LUMCON:101:1,2019-11-01T09:45:00Z,29.2533,-90.6633,2.019,5.22,11111222 
LUMCON,ioos:station:LUMCON:101:1,2019-11-01T10:00:00Z,29.2533,-90.6633,2.019,5.35,11111222 
LUMCON,ioos:station:LUMCON:101:1,2019-11-01T10:15:00Z,29.2533,-90.6633,2.019,5.46,11111222 
LUMCON,ioos:station:LUMCON:101:1,2019-11-01T10:30:00Z,29.2533,-90.6633,2.017,5.32,11111222 
LUMCON,ioos:station:LUMCON:101:1,2019-11-01T10:45:00Z,29.2533,-90.6633,2.017,5.4,11111222 
LUMCON,ioos:station:LUMCON:101:1,2019-11-01T11:00:00Z,29.2533,-90.6633,2.012,5.45,11111222 
LUMCON,ioos:station:LUMCON:101:1,2019-11-01T11:15:00Z,29.2533,-90.6633,2.01,5.52,11111222 
LUMCON,ioos:station:LUMCON:101:1,2019-11-01T11:30:00Z,29.2533,-90.6633,2.003,5.43,11111222 
LUMCON,ioos:station:LUMCON:101:1,2019-11-01T11:45:00Z,29.2533,-90.6633,1.998,4.76,11111222 
LUMCON,ioos:station:LUMCON:101:1,2019-11-01T12:00:00Z,29.2533,-90.6633,1.988,4.85,11111222 
LUMCON,ioos:station:LUMCON:101:1,2019-11-01T12:15:00Z,29.2533,-90.6633,1.984,4.7,11111222 
LUMCON,ioos:station:LUMCON:101:1,2019-11-01T12:30:00Z,29.2533,-90.6633,1.969,4.7,11111222 
LUMCON,ioos:station:LUMCON:101:1,2019-11-01T12:45:00Z,29.2533,-90.6633,1.956,4.58,11111222 
LUMCON,ioos:station:LUMCON:101:1,2019-11-01T13:00:00Z,29.2533,-90.6633,1.945,4.4,11111222 
LUMCON,ioos:station:LUMCON:101:1,2019-11-01T13:15:00Z,29.2533,-90.6633,1.927,4.2,11111222 
LUMCON,ioos:station:LUMCON:101:1,2019-11-01T13:30:00Z,29.2533,-90.6633,1.913,4.14,11111222 
LUMCON,ioos:station:LUMCON:101:1,2019-11-01T13:45:00Z,29.2533,-90.6633,1.899,4.14,11111222 
LUMCON,ioos:station:LUMCON:101:1,2019-11-01T14:00:00Z,29.2533,-90.6633,1.887,4.15,11111222 
LUMCON,ioos:station:LUMCON:101:1,2019-11-01T14:15:00Z,29.2533,-90.6633,1.873,4.12,11111222 
LUMCON,ioos:station:LUMCON:101:1,2019-11-01T14:30:00Z,29.2533,-90.6633,1.857,4.16,11111222 
LUMCON,ioos:station:LUMCON:101:1,2019-11-01T14:45:00Z,29.2533,-90.6633,1.843,4.34,11111222 
LUMCON,ioos:station:LUMCON:101:1,2019-11-01T15:00:00Z,29.2533,-90.6633,1.832,4.52,11111222 
LUMCON,ioos:station:LUMCON:101:1,2019-11-01T15:15:00Z,29.2533,-90.6633,1.823,4.72,11111222 
LUMCON,ioos:station:LUMCON:101:1,2019-11-01T15:30:00Z,29.2533,-90.6633,1.812,4.99,11111222 
LUMCON,ioos:station:LUMCON:101:1,2019-11-01T15:45:00Z,29.2533,-90.6633,1.798,5.28,11111222 
LUMCON,ioos:station:LUMCON:101:1,2019-11-01T16:00:00Z,29.2533,-90.6633,1.79,5.58,11111222 
LUMCON,ioos:station:LUMCON:101:1,2019-11-01T16:15:00Z,29.2533,-90.6633,1.78,5.89,11111222 
LUMCON,ioos:station:LUMCON:101:1,2019-11-01T16:30:00Z,29.2533,-90.6633,1.768,6.23,11111222 
LUMCON,ioos:station:LUMCON:101:1,2019-11-01T16:45:00Z,29.2533,-90.6633,1.762,6.58,11111222 
LUMCON,ioos:station:LUMCON:101:1,2019-11-01T17:00:00Z,29.2533,-90.6633,1.75,6.91,11111222 
LUMCON,ioos:station:LUMCON:101:1,2019-11-01T17:15:00Z,29.2533,-90.6633,1.742,7.21,11111222 
LUMCON,ioos:station:LUMCON:101:1,2019-11-01T17:30:00Z,29.2533,-90.6633,1.738,7.5,11111222 
LUMCON,ioos:station:LUMCON:101:1,2019-11-01T17:45:00Z,29.2533,-90.6633,1.728,7.7,11111222 
LUMCON,ioos:station:LUMCON:101:1,2019-11-01T18:00:00Z,29.2533,-90.6633,1.721,7.94,11111222 
LUMCON,ioos:station:LUMCON:101:1,2019-11-01T18:15:00Z,29.2533,-90.6633,1.715,8.13,11111222 
LUMCON,ioos:station:LUMCON:101:1,2019-11-01T18:30:00Z,29.2533,-90.6633,1.711,8.28,11111222 
LUMCON,ioos:station:LUMCON:101:1,2019-11-01T18:45:00Z,29.2533,-90.6633,1.703,8.38,11111222 
LUMCON,ioos:station:LUMCON:101:1,2019-11-01T19:00:00Z,29.2533,-90.6633,1.709,8.46,11111222 
LUMCON,ioos:station:LUMCON:101:1,2019-11-01T19:15:00Z,29.2533,-90.6633,1.714,8.53,11111222 
LUMCON,ioos:station:LUMCON:101:1,2019-11-01T19:30:00Z,29.2533,-90.6633,1.715,8.57,11111222 
LUMCON,ioos:station:LUMCON:101:1,2019-11-01T19:45:00Z,29.2533,-90.6633,1.721,8.58,11111222 
LUMCON,ioos:station:LUMCON:101:1,2019-11-01T20:00:00Z,29.2533,-90.6633,1.731,8.57,11111222 
LUMCON,ioos:station:LUMCON:101:1,2019-11-01T20:15:00Z,29.2533,-90.6633,1.727,8.55,11111222 
LUMCON,ioos:station:LUMCON:101:1,2019-11-01T20:30:00Z,29.2533,-90.6633,1.736,8.57,11111222 
LUMCON,ioos:station:LUMCON:101:1,2019-11-01T20:45:00Z,29.2533,-90.6633,1.758,8.43,11111222 
LUMCON,ioos:station:LUMCON:101:1,2019-11-01T21:00:00Z,29.2533,-90.6633,1.766,7.53,11111222 
LUMCON,ioos:station:LUMCON:101:1,2019-11-01T21:15:00Z,29.2533,-90.6633,1.785,7.09,11111222 
LUMCON,ioos:station:LUMCON:101:1,2019-11-01T21:30:00Z,29.2533,-90.6633,1.797,7.15,11111222 
LUMCON,ioos:station:LUMCON:101:1,2019-11-01T21:45:00Z,29.2533,-90.6633,1.804,6.68,11111222 
LUMCON,ioos:station:LUMCON:101:1,2019-11-01T22:00:00Z,29.2533,-90.6633,1.816,6.53,11111222 
LUMCON,ioos:station:LUMCON:101:1,2019-11-01T22:15:00Z,29.2533,-90.6633,1.826,6.48,11111222 
LUMCON,ioos:station:LUMCON:101:1,2019-11-01T22:30:00Z,29.2533,-90.6633,1.837,6.49,11111222 
LUMCON,ioos:station:LUMCON:101:1,2019-11-01T22:45:00Z,29.2533,-90.6633,1.848,6.48,11111222 
LUMCON,ioos:station:LUMCON:101:1,2019-11-01T23:00:00Z,29.2533,-90.6633,1.865,6.11,11111222 
LUMCON,ioos:station:LUMCON:101:1,2019-11-01T23:15:00Z,29.2533,-90.6633,1.879,6.14,11111222 
LUMCON,ioos:station:LUMCON:101:1,2019-11-01T23:30:00Z,29.2533,-90.6633,1.891,5.96,11111222 
LUMCON,ioos:station:LUMCON:101:1,2019-11-01T23:45:00Z,29.2533,-90.6633,1.91,5.83,11111222 
LUMCON,ioos:station:LUMCON:101:1,2019-11-02T00:00:00Z,29.2533,-90.6633,1.926,5.71,11111222 
LUMCON,ioos:station:LUMCON:101:1,2019-11-02T00:15:00Z,29.2533,-90.6633,1.936,5.51,11111222 
LUMCON,ioos:station:LUMCON:101:1,2019-11-02T00:30:00Z,29.2533,-90.6633,1.949,5.52,11111222 
LUMCON,ioos:station:LUMCON:101:1,2019-11-02T00:45:00Z,29.2533,-90.6633,1.959,5.49,11111222 
LUMCON,ioos:station:LUMCON:101:1,2019-11-02T01:00:00Z,29.2533,-90.6633,1.972,5.5,11111222 
LUMCON,ioos:station:LUMCON:101:1,2019-11-02T01:15:00Z,29.2533,-90.6633,1.982,5.53,11111222 
LUMCON,ioos:station:LUMCON:101:1,2019-11-02T01:30:00Z,29.2533,-90.6633,1.993,5.54,11111222 
LUMCON,ioos:station:LUMCON:101:1,2019-11-02T01:45:00Z,29.2533,-90.6633,2.0,5.52,11111222 
LUMCON,ioos:station:LUMCON:101:1,2019-11-02T02:00:00Z,29.2533,-90.6633,2.009,5.5,11111222 
LUMCON,ioos:station:LUMCON:101:1,2019-11-02T02:15:00Z,29.2533,-90.6633,2.023,5.52,11111222 
LUMCON,ioos:station:LUMCON:101:1,2019-11-02T02:30:00Z,29.2533,-90.6633,2.033,5.51,11111222 
LUMCON,ioos:station:LUMCON:101:1,2019-11-02T02:45:00Z,29.2533,-90.6633,2.044,5.53,11111222 
LUMCON,ioos:station:LUMCON:101:1,2019-11-02T03:00:00Z,29.2533,-90.6633,2.054,5.54,11111222 
LUMCON,ioos:station:LUMCON:101:1,2019-11-02T03:15:00Z,29.2533,-90.6633,2.063,5.56,11111222 
LUMCON,ioos:station:LUMCON:101:1,2019-11-02T03:30:00Z,29.2533,-90.6633,2.072,5.56,11111222 
LUMCON,ioos:station:LUMCON:101:1,2019-11-02T03:45:00Z,29.2533,-90.6633,2.079,5.63,11111222 
LUMCON,ioos:station:LUMCON:101:1,2019-11-02T04:00:00Z,29.2533,-90.6633,2.087,5.62,11111222 
LUMCON,ioos:station:LUMCON:101:1,2019-11-02T04:15:00Z,29.2533,-90.6633,2.094,5.61,11111222 
LUMCON,ioos:station:LUMCON:101:1,2019-11-02T04:30:00Z,29.2533,-90.6633,2.104,5.64,11111222 
LUMCON,ioos:station:LUMCON:101:1,2019-11-02T04:45:00Z,29.2533,-90.6633,2.114,5.65,11111222 
LUMCON,ioos:station:LUMCON:101:1,2019-11-02T05:00:00Z,29.2533,-90.6633,2.117,5.68,11111222 
LUMCON,ioos:station:LUMCON:101:1,2019-11-02T05:15:00Z,29.2533,-90.6633,2.124,5.72,11111222 
LUMCON,ioos:station:LUMCON:101:1,2019-11-02T05:30:00Z,29.2533,-90.6633,2.132,5.76,11111222 
LUMCON,ioos:station:LUMCON:101:1,2019-11-02T05:45:00Z,29.2533,-90.6633,2.139,5.81,11111222 
LUMCON,ioos:station:LUMCON:101:1,2019-11-02T06:00:00Z,29.2533,-90.6633,2.142,5.85,11111222 
LUMCON,ioos:station:LUMCON:101:1,2019-11-02T06:15:00Z,29.2533,-90.6633,2.143,5.91,11111222 
LUMCON,ioos:station:LUMCON:101:1,2019-11-02T06:30:00Z,29.2533,-90.6633,2.145,5.91,11111222 
LUMCON,ioos:station:LUMCON:101:1,2019-11-02T06:45:00Z,29.2533,-90.6633,2.143,5.97,11111222 
LUMCON,ioos:station:LUMCON:101:1,2019-11-02T07:00:00Z,29.2533,-90.6633,2.144,5.98,11111222 
LUMCON,ioos:station:LUMCON:101:1,2019-11-02T07:15:00Z,29.2533,-90.6633,2.142,6.0,11111222 
LUMCON,ioos:station:LUMCON:101:1,2019-11-02T07:30:00Z,29.2533,-90.6633,2.135,6.03,11111222 
LUMCON,ioos:station:LUMCON:101:1,2019-11-02T07:45:00Z,29.2533,-90.6633,2.133,5.97,11111222 
LUMCON,ioos:station:LUMCON:101:1,2019-11-02T08:00:00Z,29.2533,-90.6633,2.127,5.97,11111222 
LUMCON,ioos:station:LUMCON:101:1,2019-11-02T08:15:00Z,29.2533,-90.6633,2.124,5.96,11111222 
LUMCON,ioos:station:LUMCON:101:1,2019-11-02T08:30:00Z,29.2533,-90.6633,2.123,5.94,11111222 
LUMCON,ioos:station:LUMCON:101:1,2019-11-02T08:45:00Z,29.2533,-90.6633,2.124,5.95,11111222 
LUMCON,ioos:station:LUMCON:101:1,2019-11-02T09:00:00Z,29.2533,-90.6633,2.119,5.94,11111222 
LUMCON,ioos:station:LUMCON:101:1,2019-11-02T09:15:00Z,29.2533,-90.6633,2.113,5.94,11111222 
LUMCON,ioos:station:LUMCON:101:1,2019-11-02T09:30:00Z,29.2533,-90.6633,2.104,5.9,11111222 
LUMCON,ioos:station:LUMCON:101:1,2019-11-02T09:45:00Z,29.2533,-90.6633,2.094,5.86,11111222 
LUMCON,ioos:station:LUMCON:101:1,2019-11-02T10:00:00Z,29.2533,-90.6633,2.092,5.82,11111222 
LUMCON,ioos:station:LUMCON:101:1,2019-11-02T10:15:00Z,29.2533,-90.6633,2.081,5.8,11111222 
LUMCON,ioos:station:LUMCON:101:1,2019-11-02T10:30:00Z,29.2533,-90.6633,2.067,5.79,11111222 
LUMCON,ioos:station:LUMCON:101:1,2019-11-02T10:45:00Z,29.2533,-90.6633,2.052,5.79,11111222 
LUMCON,ioos:station:LUMCON:101:1,2019-11-02T11:00:00Z,29.2533,-90.6633,2.037,5.77,11111222 
LUMCON,ioos:station:LUMCON:101:1,2019-11-02T11:15:00Z,29.2533,-90.6633,2.023,5.74,11111222 
LUMCON,ioos:station:LUMCON:101:1,2019-11-02T11:30:00Z,29.2533,-90.6633,2.01,5.73,11111222 
LUMCON,ioos:station:LUMCON:101:1,2019-11-02T11:45:00Z,29.2533,-90.6633,1.995,5.73,11111222 
LUMCON,ioos:station:LUMCON:101:1,2019-11-02T12:00:00Z,29.2533,-90.6633,1.981,5.73,11111222 
LUMCON,ioos:station:LUMCON:101:1,2019-11-02T12:15:00Z,29.2533,-90.6633,1.966,5.73,11111222 
LUMCON,ioos:station:LUMCON:101:1,2019-11-02T12:30:00Z,29.2533,-90.6633,1.953,5.79,11111222 
LUMCON,ioos:station:LUMCON:101:1,2019-11-02T12:45:00Z,29.2533,-90.6633,1.94,5.86,11111222 
LUMCON,ioos:station:LUMCON:101:1,2019-11-02T13:00:00Z,29.2533,-90.6633,1.926,5.93,11111222 
LUMCON,ioos:station:LUMCON:101:1,2019-11-02T13:15:00Z,29.2533,-90.6633,1.913,6.02,11111222 
LUMCON,ioos:station:LUMCON:101:1,2019-11-02T13:30:00Z,29.2533,-90.6633,1.898,6.08,11111222 
LUMCON,ioos:station:LUMCON:101:1,2019-11-02T13:45:00Z,29.2533,-90.6633,1.883,6.15,11111222 
LUMCON,ioos:station:LUMCON:101:1,2019-11-02T14:00:00Z,29.2533,-90.6633,1.869,6.26,11111222 
LUMCON,ioos:station:LUMCON:101:1,2019-11-02T14:15:00Z,29.2533,-90.6633,1.856,6.35,11111222 
LUMCON,ioos:station:LUMCON:101:1,2019-11-02T14:30:00Z,29.2533,-90.6633,1.842,6.39,11111222 
LUMCON,ioos:station:LUMCON:101:1,2019-11-02T14:45:00Z,29.2533,-90.6633,1.831,6.54,11111222 
LUMCON,ioos:station:LUMCON:101:1,2019-11-02T15:00:00Z,29.2533,-90.6633,1.817,6.6,11111222 
LUMCON,ioos:station:LUMCON:101:1,2019-11-02T15:15:00Z,29.2533,-90.6633,1.806,6.72,11111222 
LUMCON,ioos:station:LUMCON:101:1,2019-11-02T15:30:00Z,29.2533,-90.6633,1.793,6.79,11111222 
LUMCON,ioos:station:LUMCON:101:1,2019-11-02T15:45:00Z,29.2533,-90.6633,1.78,6.94,11111222 
LUMCON,ioos:station:LUMCON:101:1,2019-11-02T16:00:00Z,29.2533,-90.6633,1.766,6.99,11111222 
LUMCON,ioos:station:LUMCON:101:1,2019-11-02T16:15:00Z,29.2533,-90.6633,1.754,7.08,11111222 
LUMCON,ioos:station:LUMCON:101:1,2019-11-02T16:30:00Z,29.2533,-90.6633,1.744,7.2,11111222 
LUMCON,ioos:station:LUMCON:101:1,2019-11-02T16:45:00Z,29.2533,-90.6633,1.736,7.24,11111222 
LUMCON,ioos:station:LUMCON:101:1,2019-11-02T17:00:00Z,29.2533,-90.6633,1.727,7.35,11111222 
LUMCON,ioos:station:LUMCON:101:1,2019-11-02T17:15:00Z,29.2533,-90.6633,1.716,7.42,11111222 
LUMCON,ioos:station:LUMCON:101:1,2019-11-02T17:30:00Z,29.2533,-90.6633,1.71,7.5,11111222 
LUMCON,ioos:station:LUMCON:101:1,2019-11-02T17:45:00Z,29.2533,-90.6633,1.702,7.57,11111222 
LUMCON,ioos:station:LUMCON:101:1,2019-11-02T18:00:00Z,29.2533,-90.6633,1.694,7.63,11111222 
LUMCON,ioos:station:LUMCON:101:1,2019-11-02T18:15:00Z,29.2533,-90.6633,1.684,7.68,11111222 
LUMCON,ioos:station:LUMCON:101:1,2019-11-02T18:30:00Z,29.2533,-90.6633,1.68,7.72,11111222 
LUMCON,ioos:station:LUMCON:101:1,2019-11-02T18:45:00Z,29.2533,-90.6633,1.671,7.76,11111222 
LUMCON,ioos:station:LUMCON:101:1,2019-11-02T19:00:00Z,29.2533,-90.6633,1.661,7.83,11111222 
LUMCON,ioos:station:LUMCON:101:1,2019-11-02T19:15:00Z,29.2533,-90.6633,1.654,7.88,11111222 
LUMCON,ioos:station:LUMCON:101:1,2019-11-02T19:30:00Z,29.2533,-90.6633,1.646,7.88,11111222 
LUMCON,ioos:station:LUMCON:101:1,2019-11-02T19:45:00Z,29.2533,-90.6633,1.64,7.98,11111222 
LUMCON,ioos:station:LUMCON:101:1,2019-11-02T20:00:00Z,29.2533,-90.6633,1.635,7.99,11111222 
LUMCON,ioos:station:LUMCON:101:1,2019-11-02T20:15:00Z,29.2533,-90.6633,1.63,7.99,11111222 
LUMCON,ioos:station:LUMCON:101:1,2019-11-02T20:30:00Z,29.2533,-90.6633,1.629,8.02,11111222 
LUMCON,ioos:station:LUMCON:101:1,2019-11-02T20:45:00Z,29.2533,-90.6633,1.626,8.07,11111222 
LUMCON,ioos:station:LUMCON:101:1,2019-11-02T21:00:00Z,29.2533,-90.6633,1.629,8.1,11111222 
LUMCON,ioos:station:LUMCON:101:1,2019-11-02T21:15:00Z,29.2533,-90.6633,1.635,8.11,11111222 
LUMCON,ioos:station:LUMCON:101:1,2019-11-02T21:30:00Z,29.2533,-90.6633,1.634,8.2,11111222 
LUMCON,ioos:station:LUMCON:101:1,2019-11-02T21:45:00Z,29.2533,-90.6633,1.641,8.19,11111222 
LUMCON,ioos:station:LUMCON:101:1,2019-11-02T22:00:00Z,29.2533,-90.6633,1.649,8.21,11111222 
LUMCON,ioos:station:LUMCON:101:1,2019-11-02T22:15:00Z,29.2533,-90.6633,1.664,8.21,11111222 
LUMCON,ioos:station:LUMCON:101:1,2019-11-02T22:30:00Z,29.2533,-90.6633,1.669,8.15,11111222 
LUMCON,ioos:station:LUMCON:101:1,2019-11-02T22:45:00Z,29.2533,-90.6633,1.672,7.93,11111222 
LUMCON,ioos:station:LUMCON:101:1,2019-11-02T23:00:00Z,29.2533,-90.6633,1.677,7.82,11111222 
LUMCON,ioos:station:LUMCON:101:1,2019-11-02T23:15:00Z,29.2533,-90.6633,1.684,7.58,11111222 
LUMCON,ioos:station:LUMCON:101:1,2019-11-02T23:30:00Z,29.2533,-90.6633,1.696,7.11,11111222 
LUMCON,ioos:station:LUMCON:101:1,2019-11-02T23:45:00Z,29.2533,-90.6633,1.712,6.41,11111222 
LUMCON,ioos:station:LUMCON:101:1,2019-11-03T00:00:00Z,29.2533,-90.6633,1.734,5.91,11111222 
LUMCON,ioos:station:LUMCON:101:1,2019-11-03T00:15:00Z,29.2533,-90.6633,1.748,5.81,11111222 
LUMCON,ioos:station:LUMCON:101:1,2019-11-03T00:30:00Z,29.2533,-90.6633,1.763,5.56,11111222 
LUMCON,ioos:station:LUMCON:101:1,2019-11-03T00:45:00Z,29.2533,-90.6633,1.769,5.77,11111222 
LUMCON,ioos:station:LUMCON:101:1,2019-11-03T01:00:00Z,29.2533,-90.6633,1.777,6.09,11111222 
LUMCON,ioos:station:LUMCON:101:1,2019-11-03T01:15:00Z,29.2533,-90.6633,1.79,5.41,11111222 
LUMCON,ioos:station:LUMCON:101:1,2019-11-03T01:30:00Z,29.2533,-90.6633,1.807,5.56,11111222 
LUMCON,ioos:station:LUMCON:101:1,2019-11-03T01:45:00Z,29.2533,-90.6633,1.824,5.52,11111222 
LUMCON,ioos:station:LUMCON:101:1,2019-11-03T02:00:00Z,29.2533,-90.6633,1.836,5.39,11111222 
LUMCON,ioos:station:LUMCON:101:1,2019-11-03T02:15:00Z,29.2533,-90.6633,1.848,5.12,11111222 
LUMCON,ioos:station:LUMCON:101:1,2019-11-03T02:30:00Z,29.2533,-90.6633,1.855,4.87,11111222 
LUMCON,ioos:station:LUMCON:101:1,2019-11-03T02:45:00Z,29.2533,-90.6633,1.863,5.1,11111222 
LUMCON,ioos:station:LUMCON:101:1,2019-11-03T03:00:00Z,29.2533,-90.6633,1.874,5.15,11111222 
LUMCON,ioos:station:LUMCON:101:1,2019-11-03T03:15:00Z,29.2533,-90.6633,1.886,4.4,11111222 
LUMCON,ioos:station:LUMCON:101:1,2019-11-03T03:30:00Z,29.2533,-90.6633,1.9,4.39,11111222 
LUMCON,ioos:station:LUMCON:101:1,2019-11-03T03:45:00Z,29.2533,-90.6633,1.907,3.96,11111222 
LUMCON,ioos:station:LUMCON:101:1,2019-11-03T04:00:00Z,29.2533,-90.6633,1.915,4.89,11111222 
LUMCON,ioos:station:LUMCON:101:1,2019-11-03T04:15:00Z,29.2533,-90.6633,1.924,4.86,11111222 
LUMCON,ioos:station:LUMCON:101:1,2019-11-03T04:30:00Z,29.2533,-90.6633,1.933,4.48,11111222 
LUMCON,ioos:station:LUMCON:101:1,2019-11-03T04:45:00Z,29.2533,-90.6633,1.94,4.96,11111222 
LUMCON,ioos:station:LUMCON:101:1,2019-11-03T05:00:00Z,29.2533,-90.6633,1.945,5.01,11111222 
LUMCON,ioos:station:LUMCON:101:1,2019-11-03T05:15:00Z,29.2533,-90.6633,1.951,5.04,11111222 
LUMCON,ioos:station:LUMCON:101:1,2019-11-03T05:30:00Z,29.2533,-90.6633,1.955,4.92,11111222 
LUMCON,ioos:station:LUMCON:101:1,2019-11-03T05:45:00Z,29.2533,-90.6633,1.961,5.1,11111222 
LUMCON,ioos:station:LUMCON:101:1,2019-11-03T06:00:00Z,29.2533,-90.6633,1.972,5.05,11111222 
LUMCON,ioos:station:LUMCON:101:1,2019-11-03T06:15:00Z,29.2533,-90.6633,1.979,4.98,11111222 
LUMCON,ioos:station:LUMCON:101:1,2019-11-03T06:30:00Z,29.2533,-90.6633,1.987,5.11,11111222 
LUMCON,ioos:station:LUMCON:101:1,2019-11-03T06:45:00Z,29.2533,-90.6633,1.998,4.54,11111222 
LUMCON,ioos:station:LUMCON:101:1,2019-11-03T07:00:00Z,29.2533,-90.6633,2.003,4.77,11111222 
LUMCON,ioos:station:LUMCON:101:1,2019-11-03T07:15:00Z,29.2533,-90.6633,2.008,4.97,11111222 
LUMCON,ioos:station:LUMCON:101:1,2019-11-03T07:30:00Z,29.2533,-90.6633,2.011,4.9,11111222 
LUMCON,ioos:station:LUMCON:101:1,2019-11-03T07:45:00Z,29.2533,-90.6633,2.008,5.01,11111222 
LUMCON,ioos:station:LUMCON:101:1,2019-11-03T08:00:00Z,29.2533,-90.6633,2.006,5.04,11111222 
LUMCON,ioos:station:LUMCON:101:1,2019-11-03T08:15:00Z,29.2533,-90.6633,2.004,5.1,11111222 
LUMCON,ioos:station:LUMCON:101:1,2019-11-03T08:30:00Z,29.2533,-90.6633,2.003,5.11,11111222 
LUMCON,ioos:station:LUMCON:101:1,2019-11-03T08:45:00Z,29.2533,-90.6633,1.996,4.57,11111222 
LUMCON,ioos:station:LUMCON:101:1,2019-11-03T09:00:00Z,29.2533,-90.6633,1.988,4.44,11111222 
LUMCON,ioos:station:LUMCON:101:1,2019-11-03T09:15:00Z,29.2533,-90.6633,1.979,4.46,11111222 
LUMCON,ioos:station:LUMCON:101:1,2019-11-03T09:30:00Z,29.2533,-90.6633,1.971,4.5,11111222 
LUMCON,ioos:station:LUMCON:101:1,2019-11-03T09:45:00Z,29.2533,-90.6633,1.969,4.45,11111222 
LUMCON,ioos:station:LUMCON:101:1,2019-11-03T10:00:00Z,29.2533,-90.6633,1.966,4.39,11111222 
LUMCON,ioos:station:LUMCON:101:1,2019-11-03T10:15:00Z,29.2533,-90.6633,1.964,4.44,11111222 
LUMCON,ioos:station:LUMCON:101:1,2019-11-03T10:30:00Z,29.2533,-90.6633,1.963,4.44,11111222 
LUMCON,ioos:station:LUMCON:101:1,2019-11-03T10:45:00Z,29.2533,-90.6633,1.962,4.46,11111222 
LUMCON,ioos:station:LUMCON:101:1,2019-11-03T11:00:00Z,29.2533,-90.6633,1.952,4.45,11111222 
LUMCON,ioos:station:LUMCON:101:1,2019-11-03T11:15:00Z,29.2533,-90.6633,1.943,4.41,11111222 
LUMCON,ioos:station:LUMCON:101:1,2019-11-03T11:30:00Z,29.2533,-90.6633,1.939,4.39,11111222 
LUMCON,ioos:station:LUMCON:101:1,2019-11-03T11:45:00Z,29.2533,-90.6633,1.939,4.38,11111222 
LUMCON,ioos:station:LUMCON:101:1,2019-11-03T12:00:00Z,29.2533,-90.6633,1.939,4.39,11111222 
LUMCON,ioos:station:LUMCON:101:1,2019-11-03T12:15:00Z,29.2533,-90.6633,1.939,4.39,11111222 
LUMCON,ioos:station:LUMCON:101:1,2019-11-03T12:30:00Z,29.2533,-90.6633,1.934,4.41,11111222 
LUMCON,ioos:station:LUMCON:101:1,2019-11-03T12:45:00Z,29.2533,-90.6633,1.929,4.42,11111222 
LUMCON,ioos:station:LUMCON:101:1,2019-11-03T13:00:00Z,29.2533,-90.6633,1.922,4.41,11111222 
LUMCON,ioos:station:LUMCON:101:1,2019-11-03T13:15:00Z,29.2533,-90.6633,1.911,4.37,11111222 
LUMCON,ioos:station:LUMCON:101:1,2019-11-03T13:30:00Z,29.2533,-90.6633,1.905,4.38,11111222 
LUMCON,ioos:station:LUMCON:101:1,2019-11-03T13:45:00Z,29.2533,-90.6633,1.895,4.38,11111222 
LUMCON,ioos:station:LUMCON:101:1,2019-11-03T14:00:00Z,29.2533,-90.6633,1.891,4.39,11111222 
LUMCON,ioos:station:LUMCON:101:1,2019-11-03T14:15:00Z,29.2533,-90.6633,1.879,4.44,11111222 
LUMCON,ioos:station:LUMCON:101:1,2019-11-03T14:30:00Z,29.2533,-90.6633,1.874,4.47,11111222 
LUMCON,ioos:station:LUMCON:101:1,2019-11-03T14:45:00Z,29.2533,-90.6633,1.868,4.49,11111222 
LUMCON,ioos:station:LUMCON:101:1,2019-11-03T15:00:00Z,29.2533,-90.6633,1.864,4.54,11111222 
LUMCON,ioos:station:LUMCON:101:1,2019-11-03T15:15:00Z,29.2533,-90.6633,1.86,4.56,11111222 
LUMCON,ioos:station:LUMCON:101:1,2019-11-03T15:30:00Z,29.2533,-90.6633,1.859,4.58,11111222 
LUMCON,ioos:station:LUMCON:101:1,2019-11-03T15:45:00Z,29.2533,-90.6633,1.857,4.63,11111222 
LUMCON,ioos:station:LUMCON:101:1,2019-11-03T16:00:00Z,29.2533,-90.6633,1.847,4.68,11111222 
LUMCON,ioos:station:LUMCON:101:1,2019-11-03T16:15:00Z,29.2533,-90.6633,1.842,4.73,11111222 
LUMCON,ioos:station:LUMCON:101:1,2019-11-03T16:30:00Z,29.2533,-90.6633,1.835,4.79,11111222 
LUMCON,ioos:station:LUMCON:101:1,2019-11-03T16:45:00Z,29.2533,-90.6633,1.825,4.88,11111222 